Location: Helsinki
(60.1699°N, 24.9384°E)
Time: 16:17:52
(UTC+02:00)

A-11 Canister half - Pass Details

Date: 27 October 2020
Orbit: 1525 x 1684 km, 47.3° (Epoch: 29 November)

Event Time Altitude Azimuth Distance (km) Brightness Sun altitude
Rises 18:44:43 0° 260° (W) 4,722 13.2 -16.4°
Reaches altitude 10° 18:48:06 10° 252° (WSW) 3,722 12.1 -16.8°
Maximum altitude 18:56:15 36° 191° (SSW) 2,260 9.9 -17.8°
Enters shadow 19:02:56 15° 135° (SE) 3,306 10.3 -18.6°
